Powrót do katalogu

SL-3 DEB

AktywnySSO
NORAD 24893·DEBRIS·🇷🇺 Russia

Wystrzelony Apr 20, 1988 z Baikonur Cosmodrome

Loading…

Następne Przeloty (najbliższe 24 godziny)

TLE

ŚwieżeSource: Space-Track

Epoka: Sep 14, 2026, 09:34 UTC

1 24893U 88032C   26257.39930426  .00000889  00000-0  63839-4 0  9993
2 24893  97.6457 228.3492 0021741 242.6029 269.3333 15.06720003842294

Śledź SL-3 DEB w czasie rzeczywistym z AllMySat

Download on the App Store